Location: Charlottetown
(46.2330°N, 63.1330°W)
Time: 13:35:24
(UTC-04:00)

Daily predictions for brighter satellites

Satellite Brightness Start Highest point End
(mag) Time Altitude Azimuth Time Altitude Azimuth Time Altitude Azimuth
Cosmos 2263 Rocket 2.4 16:51:48 10° SSW 16:57:25 78° WNW 17:03:06 10° NNE
Meteor 1-11 Rocket 3.7 16:53:02 10° N 16:58:38 84° E 17:04:09 10° SSE
Cosmos 1606 3.2 16:57:24 10° SSW 17:01:18 66° W 17:05:14 10° N
ERBS 4.2 17:02:08 10° WNW 17:04:45 20° NNW 17:07:22 10° NNE
Cosmos 1674 Rocket 4.1 17:04:15 10° SSW 17:08:41 66° W 17:13:09 10° N
Cosmos 2154 Rocket 4.1 17:03:41 10° N 17:09:56 88° W 17:16:11 10° S
CSL-04 Debris 4.5 17:04:48 10° S 17:10:11 75° WSW 17:15:37 10° NNW
CSL-04 Rocket 4.3 17:05:51 10° S 17:11:14 63° WSW 17:16:44 10° NNW
MSX 4.3 17:06:34 10° SE 17:11:50 39° ENE 17:17:08 10° N
Cosmos 1633 2.7 17:09:02 10° N 17:12:38 80° W 17:16:13 10° S
Cosmos 1461 4.3 17:09:14 10° NW 17:13:00 42° WSW 17:16:44 10° S
ISS -1.7 17:11:06 10° SSW 17:13:47 23° SE 17:16:26 10° E
Okean 1 Rocket 3.5 17:13:36 10° NNW 17:17:56 67° W 17:22:13 10° S
SL-27 R/B 3.2 17:16:03 10° N 17:19:26 33° ENE 17:22:47 10° SE
CZ-3B DEB 3.2 17:16:26 10° S 17:19:50 28° ESE 17:26:20 11° ENE
Cosmos 158 Rocket 4.0 17:16:24 10° NNW 17:21:49 76° ENE 17:27:06 10° SSE
Cosmos 1812 4.1 17:19:41 10° SE 17:22:31 20° E 17:25:10 11° NE
COSMO-SKYMED 1 4.0 17:20:26 10° NE 17:23:32 19° E 17:26:37 10° SE
SJ-12 3.9 17:19:32 10° SSE 17:23:36 67° ENE 17:27:42 10° N
Cosmos 1844 Rocket 3.2 17:18:43 10° S 17:23:55 41° ESE 17:29:10 10° NE
Cosmos 1544 Rocket 4.0 17:20:08 10° N 17:24:21 39° ENE 17:28:32 10° SE
Cosmos 1048 Rocket 4.4 17:19:30 10° NNW 17:24:48 73° WSW 17:30:08 10° SSE
Meteor 1-27 Rocket 4.1 17:19:23 10° SSW 17:25:13 71° WNW 17:30:59 10° N
CZ-4 R/B 1.4 17:22:06 10° SSE 17:26:18 86° ENE 17:30:29 10° NNW
Okean 3 3.5 17:22:04 10° S 17:26:22 89° ESE 17:30:40 10° N
GEOS 3 Rocket 3.8 17:22:51 10° ESE 17:27:45 47° NE 17:32:39 10° NNW
CZ-2C R/B 2.4 17:24:49 10° SSE 17:29:45 74° ENE 17:34:53 10° N
Cosmos 1975 Rocket 3.0 17:25:48 10° S 17:30:04 68° E 17:34:23 10° NNE
CZ-2C R/B 4.3 17:27:52 10° N 17:32:15 58° WNW 17:36:37 10° SSW
Cosmos 1238 Rocket 3.3 17:31:01 10° SE 17:33:26 23° E 17:34:34 18° ENE
Cosmos 1844 4.2 17:28:54 10° S 17:33:57 37° ESE 17:38:29 13° NE
CRYOSAT 2 4.3 17:31:21 10° N 17:36:16 69° E 17:41:08 10° S
USA 116 4.5 17:32:58 10° NNE 17:38:24 77° ESE 17:43:42 10° S
MOS 1 4.4 17:33:30 10° SSE 17:39:10 86° WSW 17:44:52 10° NNW
Cosmos 1975 3.7 17:35:54 10° NNE 17:39:28 28° ENE 17:42:59 10° SE
CORIOLIS 4.1 17:37:21 10° SSE 17:42:46 85° ENE 17:48:12 10° NNW
AQUARIUS 4.2 17:38:47 10° SSE 17:43:17 83° WSW 17:47:48 10° NNW
COSMOS 2441 4.4 17:40:45 10° SSE 17:45:30 57° ENE 17:50:19 10° N
Cosmos 1536 Rocket 4.2 17:42:40 10° SSE 17:46:40 34° E 17:50:10 13° NNE
SPOT 3 Rocket 3.8 17:41:56 10° S 17:47:08 76° WSW 17:52:19 10° NNW
SL-8 Rocket 3.9 17:42:27 10° N 17:48:40 86° E 17:54:50 10° S
COSMOS 2406 3.9 17:44:52 10° NNW 17:50:29 60° WSW 17:56:07 10° S
SMAP 3.4 17:46:30 10° S 17:51:08 71° WSW 17:55:48 10° NNW
Cosmos 2278 Rocket 2.9 17:46:52 10° SSE 17:51:48 32° ESE 17:54:41 20° ENE
BREEZE M DEB (TANK) 2.8 17:50:43 10° WNW 17:53:35 58° N 17:57:58 20° E
YAOGAN 1 2.9 17:49:31 10° S 17:53:50 69° WSW 17:58:10 10° NNW
Cosmos 2366 rocket 4.0 17:52:19 10° N 17:58:43 76° E 18:05:02 10° SSE
Cosmos 2218 Rocket 4.0 17:54:06 10° N 18:00:28 88° E 18:06:42 10° S
ASTRO F (AKARI) 4.1 17:58:56 20° NNE 18:00:58 73° ESE 18:04:05 10° S
COSMOS 2487 4.2 17:59:07 10° N 18:00:33 18° NNE 18:00:33 18° NNE
Meteor 2-19 Rocket 4.5 17:57:08 10° N 18:03:14 83° W 18:09:16 10° S
USA 234 3.5 17:58:08 17° NE 18:03:16 67° NNW 18:09:44 10° WSW
IDEFIX/ARIANE 42P 3.2 17:58:12 10° S 18:03:20 59° W 18:08:30 10° NNW
Cosmos 2181 Rocket 4.5 17:57:20 10° SSW 18:03:38 66° WNW 18:10:03 10° N
USA 32 4.0 17:58:51 10° S 18:04:05 87° W 18:09:21 10° N
Cosmos 1959 Rocket 4.5 17:58:32 10° N 18:04:44 87° W 18:10:57 10° S
Timation 2 Rocket 4.5 18:02:37 10° NNW 18:09:04 44° NE 18:14:34 15° ESE
SKYMED 2 3.6 18:08:59 20° NNE 18:11:55 57° E 18:16:11 10° S
Abrixas 2.6 18:09:31 10° WNW 18:12:26 53° N 18:12:32 52° NNE
Cosmos 1484 Rocket 2.5 18:08:48 10° SSE 18:12:34 84° ENE 18:16:20 10° NNW
Cosmos 375 4.4 18:08:10 10° NW 18:12:55 63° NE 18:14:43 30° ESE
Cosmos 2082 Rocket 2.7 18:08:55 10° NNW 18:14:08 36° NE 18:15:49 30° E
Cosmos 1455 Rocket 3.1 18:09:45 10° N 18:14:10 81° W 18:18:34 10° S
Genesis I 3.6 18:12:06 10° NNW 18:15:52 41° NE 18:15:53 41° NE
NOSS 3-3 (A) 4.3 18:13:43 10° S 18:19:35 46° ESE 18:22:12 31° ENE
NOSS 3-3 (C) 4.3 18:13:50 10° S 18:19:42 46° ESE 18:22:17 31° ENE
Cosmos 1833 Rocket 3.2 18:15:07 10° NNW 18:20:17 35° NE 18:21:00 34° ENE
Thor Agena Rocket 4.4 18:17:57 10° N 18:22:57 49° WNW 18:27:59 10° SW
Cosmos 1809 Rocket 4.3 18:18:29 10° N 18:24:39 69° ENE 18:30:46 10° SSE
Cosmos 494 Rocket 4.2 18:20:32 10° NNW 18:25:45 73° WSW 18:30:59 10° SSE
ATLAS 2AS CENTAUR R/B 3.3 18:17:56 10° NW 18:26:00 70° WSW 18:33:32 10° SSE
SL-8 R/B 4.4 18:26:08 10° SSW 18:30:30 37° SE 18:31:02 36° SE
Cosmos 1821 Rocket 4.1 18:28:18 10° N 18:34:11 46° ENE 18:40:00 10° SSE
Cosmos 1500 3.1 18:31:48 10° N 18:35:38 87° W 18:39:28 10° S
NOAA 12 3.9 18:31:03 10° SSE 18:36:19 72° ENE 18:41:35 10° N
METEOR-M 4.0 18:31:35 10° SSE 18:36:50 62° ENE 18:42:08 10° N
Okean 1 3.3 18:33:05 10° SSW 18:37:08 80° W 18:38:44 36° N
Cosmos 2251 Rocket 4.5 18:33:39 10° NNW 18:38:49 49° WSW 18:43:55 10° S
Meteor 1-28 Rocket 3.9 18:40:04 42° SSE 18:40:04 42° SSE 18:42:43 10° S
Cosmos 2263 Rocket 4.5 18:38:43 10° W 18:42:20 17° NW 18:45:58 10° N
BREEZE-M R/B 3.7 18:39:40 10° SW 18:48:54 64° SSE 18:49:49 55° ESE
ISS -2.0 18:46:47 10° WSW 18:49:07 41° W 18:49:07 41° W
BREEZE-M DEB (TANK) 3.8 18:44:12 10° W 18:50:07 52° NNW 18:50:07 52° NNW
Nadezhda 3 Rocket 3.9 18:51:35 10° S 18:57:46 88° ESE 19:04:06 10° N
Cosmos 1812 4.5 18:54:42 10° SW 18:58:11 32° WNW 19:00:23 18° NNW
Cosmos 1346 Rocket 3.6 18:54:21 10° SSW 18:57:08 44° SSW 18:57:08 44° SSW
COSMO-SKYMED 1 3.5 18:57:35 23° N 18:59:56 46° WNW 19:04:05 10° SW
Cosmos 1844 Rocket 4.0 19:02:46 10° WSW 19:07:53 35° NW 19:11:09 20° N
Cosmos 2297 4.1 19:13:14 10° SSW 19:17:28 52° S 19:17:28 52° S
Meteor 1-19 Rocket 4.4 19:24:18 10° SSW 19:29:44 72° WSW 19:29:44 72° WSW
Cosmos 2278 Rocket 3.1 19:30:21 10° SW 19:35:43 44° NW 19:36:35 41° NNW
USA 234 4.1 19:45:29 37° N 19:45:40 37° N 19:51:34 10° WNW
CZ-3B DEB 3.4 19:48:30 10° W 19:54:03 62° NNW 19:55:17 57° NNE
Cosmos 2082 Rocket 3.4 19:53:01 10° NW 19:57:45 39° W 19:57:45 39° W
NOSS 3-4 (A) 4.2 19:54:38 10° NW 19:59:50 55° NW 19:59:50 55° NW
NOSS 3-4 (C) 4.2 19:54:44 10° NW 19:59:55 54° NW 19:59:55 54° NW
Cosmos 1833 Rocket 4.1 19:59:01 10° NW 20:02:46 34° WNW 20:02:46 34° WNW
